Change the Weather History Date:

Friday, January 18, 2013

  Actual Average Record
Temperature  
Mean Temperature 14 °F 6 °F  
Max Temperature 19 °F 16 °F 40 °F (1991)
Min Temperature 8 °F -4 °F -34 °F (1970)
Degree Days  
Heating Degree Days 51 59  
Month to date heating degree days 919 1054  
Since 1 July heating degree days 4677 4913  
Cooling Degree Days 0 0  
Month to date cooling degree days 0 0  
Year to date cooling degree days 0 0  
Moisture  
Dew Point 11 °F    
Average Humidity 81    
Maximum Humidity 88    
Minimum Humidity 73    
Precipitation  
Precipitation 0.08 in 0.02 in 0.18 in (1987)
Month to date precipitation 0.39 0.34  
Year to date precipitation 0.39 0.34  
Snow  
Snow 1.00 in 0.40 in 2.70 in (1987)
Month to date snowfall 3.5 6.6  
Since 1 July snowfall 18.5 26.5  
Snow Depth 6.00 in    
Sea Level Pressure  
Sea Level Pressure 29.84 in    
Wind  
Wind Speed 6 mph (East)    
Max Wind Speed 21 mph    
Max Gust Speed 23 mph    
Visibility 7 miles    
Events Snow    
T = Trace of Precipitation, MM = Missing Value Source: NWS Daily Summary

Daily Weather History Graph

Daily Weather History Graph

Search for Another Location

Airport or City:

Trip Planner

Search our weather history database for the weather conditions in past years. The results will help you decide how hot, cold, wet, or windy it might be!

Date:

Astronomy

Jan. 18, 2013 Rise Set
Actual Time 8:10 AM CST 5:08 PM CST
Civil Twilight 7:36 AM CST 5:42 PM CST
Nautical Twilight 6:57 AM CST 6:21 PM CST
Astronomical Twilight 6:21 AM CST 6:57 PM CST
Moon 11:12 AM CST (1/18) 12:35 AM CST (1/18)
Length of Visible Light 10h 06m
Length of Day
8h 57m
Waxing Crescent, 47% of the Moon is Illuminated
Jan 18
Waxing Crescent
Jan 18
First Quarter
Jan 26
Full
Feb 3
Last Quarter
Feb 10
New

Hourly Weather History & Observations

Time (CST) Temp. Windchill Dew Point Humidity Pressure Visibility Wind Dir Wind Speed Gust Speed Precip Events Conditions
12:36 AM 8.6 °F -9.5 °F 6.8 °F 92% 30.04 in 4.0 mi SSE 17.3 mph - 0.00 in   Light Freezing Drizzle
12:53 AM 9.0 °F -9.0 °F 6.1 °F 88% 30.08 in 2.5 mi SE 17.3 mph - 0.00 in   Light Freezing Drizzle
1:30 AM 10.4 °F -5.4 °F 6.8 °F 85% 30.00 in 4.0 mi SE 13.8 mph - 0.00 in Snow Light Snow
1:53 AM 10.9 °F -4.1 °F 7.0 °F 84% 30.06 in 3.0 mi SE 12.7 mph - 0.00 in Snow Light Snow
2:33 AM 10.4 °F -4.8 °F 6.8 °F 85% 29.95 in 1.2 mi SE 12.7 mph - 0.03 in Snow Light Snow
2:43 AM 10.4 °F -5.4 °F 6.8 °F 85% 29.95 in 1.0 mi SE 13.8 mph - 0.04 in Snow Light Snow
2:53 AM 10.9 °F -4.1 °F 7.0 °F 84% 30.00 in 1.0 mi SE 12.7 mph - 0.05 in Snow Light Snow
3:06 AM 10.4 °F -4.8 °F 6.8 °F 85% 29.93 in 2.0 mi SE 12.7 mph - 0.01 in Snow Light Snow
3:51 AM 10.4 °F -4.1 °F 6.8 °F 85% 29.89 in 3.0 mi ESE 11.5 mph - 0.01 in Snow Light Snow
3:53 AM 10.9 °F -4.1 °F 7.0 °F 84% 29.95 in 3.0 mi ESE 12.7 mph - 0.01 in Snow Light Snow
4:53 AM 12.0 °F -0.4 °F 8.1 °F 84% 29.91 in 8.0 mi SE 9.2 mph - 0.00 in Snow Light Snow
5:53 AM 12.9 °F 0.7 °F 10.0 °F 88% 29.87 in 10.0 mi SE 9.2 mph - 0.00 in   Overcast
6:27 AM 14.0 °F 5.1 °F 10.4 °F 86% 29.79 in 10.0 mi ESE 5.8 mph - N/A   Overcast
6:53 AM 14.0 °F 5.1 °F 10.9 °F 88% 29.86 in 10.0 mi East 5.8 mph - N/A   Overcast
7:53 AM 16.0 °F 5.3 °F 12.0 °F 84% 29.81 in 10.0 mi SE 8.1 mph - N/A   Overcast
8:53 AM 16.0 °F 8.8 °F 12.9 °F 88% 29.82 in 9.0 mi East 4.6 mph - 0.00 in Snow Light Snow
9:11 AM 15.8 °F 7.2 °F 12.2 °F 86% 29.74 in 6.0 mi East 5.8 mph - 0.00 in Snow Light Snow
9:53 AM 17.1 °F 11.7 °F 14.0 °F 88% 29.81 in 10.0 mi SE 3.5 mph - 0.01 in   Overcast
10:15 AM 17.6 °F 9.3 °F 14.0 °F 86% 29.73 in 10.0 mi SSE 5.8 mph - N/A   Overcast
10:53 AM 19.0 °F - 15.1 °F 85% 29.80 in 10.0 mi Calm Calm - N/A   Overcast
11:10 AM 19.4 °F - 14.0 °F 80% 29.74 in 10.0 mi Calm Calm - N/A   Overcast
11:28 AM 19.4 °F 11.5 °F 14.0 °F 80% 29.75 in 2.5 mi NNW 5.8 mph - 0.00 in Snow Light Snow
11:37 AM 19.4 °F 9.5 °F 14.0 °F 80% 29.74 in 3.0 mi North 8.1 mph - 0.00 in Snow Light Snow
11:53 AM 19.0 °F 11.1 °F 14.0 °F 81% 29.79 in 2.5 mi North 5.8 mph - 0.00 in Snow Light Snow
12:20 PM 17.6 °F 12.3 °F 14.0 °F 86% 29.72 in 5.0 mi North 3.5 mph - 0.01 in Snow Light Snow
12:53 PM 19.0 °F 9.0 °F 14.0 °F 81% 29.79 in 10.0 mi NW 8.1 mph - 0.01 in   Overcast
1:53 PM 19.0 °F 8.2 °F 12.9 °F 77% 29.79 in 10.0 mi North 9.2 mph - N/A   Mostly Cloudy
2:53 PM 18.0 °F 7.7 °F 12.0 °F 78% 29.79 in 10.0 mi NNW 8.1 mph - N/A   Mostly Cloudy
3:53 PM 17.1 °F 7.6 °F 12.0 °F 81% 29.78 in 10.0 mi North 6.9 mph - N/A   Mostly Cloudy
4:53 PM 17.1 °F 8.7 °F 12.0 °F 81% 29.79 in 10.0 mi NNW 5.8 mph - N/A   Overcast
5:53 PM 17.1 °F 6.6 °F 12.0 °F 81% 29.81 in 10.0 mi NNW 8.1 mph - N/A   Overcast
6:53 PM 16.0 °F 8.8 °F 12.0 °F 84% 29.79 in 8.0 mi NNE 4.6 mph - N/A   Overcast
7:31 PM 15.8 °F 10.2 °F 10.4 °F 79% 29.74 in 10.0 mi ENE 3.5 mph - N/A   Overcast
7:53 PM 16.0 °F - 12.0 °F 84% 29.79 in 10.0 mi Calm Calm - N/A   Overcast
8:53 PM 16.0 °F - 12.0 °F 84% 29.78 in 10.0 mi Calm Calm - N/A   Overcast
9:53 PM 16.0 °F - 12.0 °F 84% 29.77 in 10.0 mi Calm Calm - N/A   Overcast
10:53 PM 16.0 °F 8.8 °F 12.0 °F 84% 29.74 in 10.0 mi ESE 4.6 mph - N/A   Overcast
11:53 PM 16.0 °F - 12.9 °F 88% 29.72 in 10.0 mi Calm Calm - N/A   Overcast